Location: Estes Par
(40.3770°N, 10.0000°W)
Time: 17:51:13
(UTC-07:00)

Envisat - Visible Passes

Search period start: 21 February 2018 00:00
Search period end: 03 March 2018 00:00
Orbit: 764 x 766 km, 98.2° (Epoch: 21 February)

Date Brightness Start Highest point End Pass type
(mag) Time Alt. Az. Time Alt. Az. Time Alt. Az.
21 Feb 4.3 11:56:02 10° ESE 11:59:29 19° ENE 12:02:55 10° NNE visible
21 Feb 3.7 13:33:07 10° S 13:38:03 53° W 13:43:01 10° NNW visible
22 Feb 2.9 12:56:19 10° SSE 13:01:21 69° ENE 13:06:23 10° N visible
22 Feb 5.8 14:38:28 10° WSW 14:40:49 13° W 14:43:12 10° WNW visible
23 Feb 3.7 12:20:24 10° SE 12:24:48 31° ENE 12:29:14 10° N visible
23 Feb 4.7 13:59:21 10° SSW 14:03:46 30° W 14:08:12 10° NW visible
24 Feb 3.2 13:21:52 10° S 13:26:54 68° WSW 13:31:58 10° NNW visible
25 Feb 3.1 12:45:19 10° SSE 12:50:14 54° ENE 12:55:11 10° N visible
25 Feb 5.6 14:26:20 10° SW 14:29:34 17° W 14:32:50 10° NW visible
26 Feb 4.0 12:09:41 10° ESE 12:13:46 25° ENE 12:17:51 10° NNE visible
26 Feb 4.3 13:47:53 10° SSW 13:52:34 38° W 13:57:17 10° NNW visible
27 Feb 2.9 13:10:42 10° SSE 13:15:46 86° WSW 13:20:52 10° NNW visible
28 Feb 3.3 12:34:24 10° SE 12:39:10 43° ENE 12:43:56 10° N visible
28 Feb 5.3 14:14:29 10° SW 14:18:20 22° W 14:22:11 10° NW visible
01 Mar 4.3 11:59:06 10° ESE 12:02:44 20° ENE 12:06:23 10° NNE visible
01 Mar 3.9 13:36:30 10° S 13:41:23 48° W 13:46:18 10° NNW visible
02 Mar 2.9 12:59:35 10° SSE 13:04:38 76° ENE 13:09:43 10° N visible
02 Mar 5.9 14:42:22 10° WSW 14:44:11 12° W 14:46:01 10° WNW visible
